Retour au catalogue

STARLINK-33821

ActifCommunicationsVLEO
NORAD 63859·PAYLOAD·🇺🇸 United States

Lancé May 7, 2025 depuis Cape Canaveral Space Force Station

Loading…

Prochains Passages (prochaines 24 heures)

TLE

FraisSource: CelesTrak SupGP

Époque: Sep 14, 2026, 22:57 UTC

1 63859C 25093Z   26257.95673611  .00034485  00000+0  12491-2 0  2579
2 63859  43.0014  89.1523 0001636 271.2212 175.1472 15.27558994    19

Suivez STARLINK-33821 en temps réel avec AllMySat

Download on the App Store